Find Starlink 5897

NORAD ID: 55931 Int'l Des: 2023-037 Owner: SPXS Country: US Constellation: starlink operational
LEOCIRCULAR

Live-Position

3D-Globus wird geladen...

Über Starlink 5897

Beschreibung wird geladen...

Nächste Überflüge

Passes for default location (London). Set your location on the main map for personalized predictions.

Höhenverlauf

Loading altitude history...

Zweizeiliger Elementsatz

1 55931U 23037T 26125.11580508 .00000159 00000-0 21169-4 0 9990
2 55931 69.9994 162.0106 0003821 268.6363 91.4358 14.98330213171941
Epoch: 5. Mai 2026 • Age: 8 hours

Aktueller Status

Höhe 585.4 km
Geschwindigkeit 7.57 km/s
Subsatellitenpunkt 66.13°N, 105.87°W
Startdatum 17. März 2023
Alter 3.1 years
Typ internet

Technische Details

Klassifizierung Payload
Masse 305.00 kg
Trockenmasse 290.00 kg
Gesamtmasse 305.00 kg
Länge 0.20 m
Durchmesser 2.80 m
Spannweite 9.00 m
Form Box + pan
Hersteller SPXS
Bus-Typ Starlink
Phasenstatus In Orbit
Besitzer/Staat SPXS/US

Most Searched